Weather History for MRLB - October, 2014

Change the Weather History Date:

Wednesday, October 22, 2014

  Actual Average Record
Temperature  
Mean Temperature 77 °F -  
Max Temperature 81 °F 85 °F 91 °F (2000)
Min Temperature 73 °F 72 °F 71 °F (2006)
Cooling Degree Days 12    
Growing Degree Days 27 (Base 50)    
Moisture  
Dew Point 74 °F    
Average Humidity 90    
Maximum Humidity 100    
Minimum Humidity 77    
Precipitation  
Precipitation 0.04 in - - ()
Sea Level Pressure  
Sea Level Pressure 29.88 in    
Wind  
Wind Speed 4 mph ()    
Max Wind Speed 8 mph    
Max Gust Speed -    
Visibility 5.6 miles    
Events Rain    
Averages and records for this station are not official NWS values.
T = Trace of Precipitation, MM = Missing Value Source: Averaged Metar Reports

Daily Weather History Graph

Daily Weather History Graph

Search for Another Location

Airport or City:

Trip Planner

Search our weather history database for the weather conditions in past years. The results will help you decide how hot, cold, wet, or windy it might be!

Date:

Astronomy

Oct. 22, 2014 Rise Set
Actual Time 5:31 AM CST 5:21 PM CST
Civil Twilight 5:10 AM CST 5:42 PM CST
Nautical Twilight 4:45 AM CST 6:07 PM CST
Astronomical Twilight 4:20 AM CST 6:32 PM CST
Moon 4:26 AM CST (10/22) 4:38 PM CST (10/22)
Length of Visible Light 12h 32m
Length of Day
11h 49m
Waning Crescent, 1% of the Moon is Illuminated
Oct 22
Waning Crescent
Oct 23
New
Oct 30
First Quarter
Nov 6
Full
Nov 14
Last Quarter

Hourly Weather History & Observations

Time (CST) Temp. Heat Index Dew Point Humidity Pressure Visibility Wind Dir Wind Speed Gust Speed Precip Events Conditions
6:00 AM 75 °F - 73 °F 91% 29.90 in 12 mi ESE 4.6 mph - -   Overcast
6:00 AM 75.2 °F - 73.4 °F 94% 29.87 in 6.2 mi ESE 4.6 mph - N/A   Mostly Cloudy
7:00 AM 75.2 °F - 73.4 °F 94% 29.90 in 6.2 mi SE 5.8 mph - N/A Rain Light Rain
7:14 AM 75.2 °F - 73.4 °F 94% 29.90 in 5.0 mi ESE 6.9 mph - N/A Rain Rain
8:00 AM 75.2 °F - 73.4 °F 94% 29.92 in 5.0 mi ESE 6.9 mph - N/A Rain Light Rain
8:10 AM 75.2 °F - 73.4 °F 94% 29.93 in 1.9 mi ESE 6.9 mph - N/A Rain Rain
9:00 AM 76 °F - 74 °F 91% 29.96 in 5 mi East 3.5 mph - - Rain Light Rain
9:00 AM 77.0 °F - 73.4 °F 89% 29.93 in 5.0 mi East 3.5 mph - N/A Rain Light Rain
9:30 AM 77.0 °F - 73.4 °F 89% 29.93 in 3.1 mi Calm Calm - N/A Rain Rain
9:50 AM 75.2 °F - 75.2 °F 100% 29.94 in 1.9 mi WNW 3.5 mph - N/A Rain Rain
10:00 AM 75.2 °F - 75.2 °F 100% 29.94 in 1.9 mi WNW 3.5 mph - N/A Rain Rain
10:40 AM 75.2 °F - 73.4 °F 94% 29.92 in 2.5 mi East 3.5 mph - N/A Rain Rain
11:00 AM 75.2 °F - 73.4 °F 94% 29.91 in 3.1 mi ESE 6.9 mph - N/A Rain Light Rain
11:25 AM 75.2 °F - 73.4 °F 94% 29.90 in 1.6 mi ESE 5.8 mph - N/A Rain Rain
12:00 PM - - 74 °F %  in 6 mi ESE 8.1 mph - -   Overcast
12:00 PM 77.0 °F - 73.4 °F 89% 29.88 in 6.2 mi ESE 8.1 mph - N/A   Mostly Cloudy
12:40 PM 78.8 °F - 73.4 °F 83% 29.86 in 6.2 mi East 5.8 mph - N/A Rain Rain
1:00 PM 78.8 °F - 73.4 °F 83% 29.86 in 6.2 mi SE 3.5 mph - N/A   Mostly Cloudy
2:00 PM 78.8 °F - 73.4 °F 83% 29.82 in 6.2 mi South 2.3 mph - N/A   Mostly Cloudy
3:00 PM 80 °F - 74 °F 77% 29.85 in 12 mi SE 3.5 mph - -   Overcast
3:00 PM 80.6 °F 85.4 °F 73.4 °F 79% 29.81 in 6.2 mi SE 3.5 mph - N/A   Mostly Cloudy
4:00 PM 78.8 °F - 75.2 °F 89% 29.81 in 6.2 mi NW 4.6 mph - N/A   Mostly Cloudy
5:00 PM 77.0 °F - 75.2 °F 94% 29.82 in 6.2 mi NW 3.5 mph - N/A   Mostly Cloudy
6:00 PM 77 °F - 74 °F 88% 29.87 in 12 mi North 2.3 mph - -   Overcast
6:00 PM 77.0 °F - 73.4 °F 89% 29.84 in 6.2 mi North 2.3 mph - N/A   Mostly Cloudy
7:00 PM 77.0 °F - 73.4 °F 89% 29.86 in 6.2 mi ENE 3.5 mph - N/A   Mostly Cloudy
8:00 PM 75.2 °F - 73.4 °F 94% 29.88 in 6.2 mi East 2.3 mph - N/A   Mostly Cloudy